Shenandoah, IA

6:14 AM CDT on April 23, 2018 (GMT -0500)
Shenandoah Municipal

Weather History for KSDA - February, 2014

Change the Weather History Date:

Tuesday, February 25, 2014

  Actual Average Record
Temperature  
Mean Temperature 16 °F -  
Max Temperature 23 °F 41 °F 65 °F (1981)
Min Temperature 10 °F 21 °F -5 °F (2003)
Degree Days  
Heating Degree Days 48    
Moisture  
Dew Point 6 °F    
Average Humidity 70    
Maximum Humidity 93    
Minimum Humidity 53    
Precipitation  
Precipitation 0.00 in - - ()
Sea Level Pressure  
Sea Level Pressure 30.42 in    
Wind  
Wind Speed 11 mph (North)    
Max Wind Speed 20 mph    
Max Gust Speed 26 mph    
Visibility 10 miles    
Events Snow    
Averages and records for this station are not official NWS values.
T = Trace of Precipitation, MM = Missing Value Source: NWS Daily Summary

Daily Weather History Graph

Daily Weather History Graph

Search for Another Location

Airport or City:

Astronomy

Feb. 25, 2014 Rise Set
Actual Time 7:01 AM CST 6:08 PM CST
Civil Twilight 6:33 AM CST 6:35 PM CST
Nautical Twilight 6:02 AM CST 7:07 PM CST
Astronomical Twilight 5:30 AM CST 7:39 PM CST
Moon 3:58 AM CST (2/25) 2:14 PM CST (2/25)
Length of Visible Light 12h 02m
Length of Day
11h 06m
Waning Crescent, 18% of the Moon is Illuminated
Feb 25
Waning Crescent
Mar 1
New
Mar 8
First Quarter
Mar 16
Full
Mar 23
Last Quarter

Hourly Weather History & Observations

Time (CST) Temp. Windchill Dew Point Humidity Pressure Visibility Wind Dir Wind Speed Gust Speed Precip Events Conditions
12:15 AM 23.0 °F 13.9 °F 21.2 °F 93% 30.31 in 10.0 mi NE 8.1 mph - N/A   Overcast
12:35 AM 23.0 °F 13.9 °F 19.4 °F 86% 30.32 in 10.0 mi NNE 8.1 mph - N/A   Overcast
12:55 AM 21.2 °F 13.6 °F 19.4 °F 93% 30.32 in 10.0 mi NE 5.8 mph - N/A   Overcast
1:15 AM 21.2 °F 12.6 °F 19.4 °F 93% 30.33 in 10.0 mi NNE 6.9 mph - N/A   Overcast
1:35 AM 21.2 °F - 19.4 °F 93% 30.34 in 10.0 mi Calm Calm - N/A Snow Light Snow
1:55 AM 21.2 °F 9.5 °F 19.4 °F 93% 30.34 in 10.0 mi NNE 11.5 mph - N/A   Overcast
2:15 AM 21.2 °F 10.1 °F 17.6 °F 86% 30.35 in 10.0 mi NNE 10.4 mph - N/A   Overcast
2:35 AM 21.2 °F 9.5 °F 17.6 °F 86% 30.35 in 10.0 mi North 11.5 mph - N/A   Overcast
2:50 AM 19.4 °F 7.2 °F 15.8 °F 86% 30.35 in 10.0 mi NNE 11.5 mph - N/A   Overcast
3:15 AM 19.4 °F 6.6 °F 15.8 °F 86% 30.35 in 10.0 mi NNE 12.7 mph - N/A   Overcast
3:35 AM 19.4 °F 7.9 °F 15.8 °F 86% 30.36 in 10.0 mi North 10.4 mph - N/A   Overcast
3:55 AM 19.4 °F 7.9 °F 14.0 °F 80% 30.37 in 10.0 mi North 10.4 mph - N/A   Overcast
4:15 AM 17.6 °F 6.4 °F 14.0 °F 86% 30.37 in 10.0 mi North 9.2 mph - N/A   Overcast
4:35 AM 17.6 °F 2.7 °F 12.2 °F 79% 30.37 in 10.0 mi North 16.1 mph 21.9 mph N/A Snow Light Snow
4:55 AM 14.0 °F -3.4 °F 10.4 °F 86% 30.37 in 10.0 mi NNE 19.6 mph 26.5 mph N/A   Overcast
5:15 AM 14.0 °F -3.4 °F 10.4 °F 86% 30.37 in 10.0 mi NNE 19.6 mph - N/A   Overcast
5:35 AM 14.0 °F -0.8 °F 8.6 °F 79% 30.39 in 10.0 mi NNE 13.8 mph 20.7 mph N/A   Overcast
5:55 AM 14.0 °F -0.8 °F 8.6 °F 79% 30.39 in 10.0 mi NNE 13.8 mph 20.7 mph N/A   Overcast
6:15 AM 14.0 °F -0.2 °F 8.6 °F 79% 30.39 in 10.0 mi NNE 12.7 mph - N/A   Overcast
6:35 AM 12.2 °F -4.3 °F 6.8 °F 79% 30.40 in 10.0 mi NNE 16.1 mph - N/A Snow Light Snow
6:55 AM 10.4 °F -6.0 °F 5.0 °F 79% 30.39 in 10.0 mi North 15.0 mph - N/A   Mostly Cloudy
7:15 AM 10.4 °F -6.0 °F 5.0 °F 79% 30.39 in 10.0 mi NNE 15.0 mph - N/A   Scattered Clouds
7:35 AM 12.2 °F -2.5 °F 5.0 °F 73% 30.41 in 10.0 mi NNE 12.7 mph - N/A   Mostly Cloudy
7:55 AM 12.2 °F -0.2 °F 6.8 °F 79% 30.42 in 10.0 mi North 9.2 mph 16.1 mph N/A   Overcast
8:10 AM 12.2 °F -1.8 °F 6.8 °F 79% 30.43 in 10.0 mi North 11.5 mph - N/A   Overcast
8:35 AM 12.2 °F -1.8 °F 6.8 °F 79% 30.42 in 10.0 mi North 11.5 mph - N/A Snow Light Snow
8:55 AM 12.2 °F -1.0 °F 6.8 °F 79% 30.41 in 10.0 mi North 10.4 mph 17.3 mph N/A   Mostly Cloudy
9:15 AM 12.2 °F -1.8 °F 6.8 °F 79% 30.41 in 10.0 mi North 11.5 mph - N/A   Overcast
9:35 AM 14.0 °F 0.5 °F 6.8 °F 73% 30.42 in 10.0 mi North 11.5 mph - N/A   Overcast
9:55 AM 14.0 °F 0.5 °F 6.8 °F 73% 30.42 in 10.0 mi North 11.5 mph - N/A   Mostly Cloudy
10:15 AM 14.0 °F -0.8 °F 6.8 °F 73% 30.43 in 10.0 mi North 13.8 mph - N/A   Mostly Cloudy
10:35 AM 14.0 °F -0.2 °F 6.8 °F 73% 30.45 in 10.0 mi North 12.7 mph - N/A Snow Light Snow
10:55 AM 14.0 °F 1.2 °F 5.0 °F 67% 30.45 in 10.0 mi North 10.4 mph - N/A   Overcast
11:15 AM 14.0 °F 1.2 °F 5.0 °F 67% 30.46 in 10.0 mi North 10.4 mph - N/A   Mostly Cloudy
11:35 AM 14.0 °F 2.9 °F 5.0 °F 67% 30.47 in 10.0 mi North 8.1 mph - N/A   Mostly Cloudy
12:00 PM 14.0 °F -0.8 °F 1.4 °F 57% 30.47 in 10.0 mi North 13.8 mph - N/A   Overcast
12:15 PM 14.0 °F 0.5 °F 1.4 °F 57% 30.47 in 10.0 mi North 11.5 mph - N/A   Mostly Cloudy
12:35 PM 14.0 °F 0.5 °F 1.4 °F 57% 30.47 in 10.0 mi NNW 11.5 mph - N/A   Overcast
12:55 PM 14.0 °F 1.2 °F 1.4 °F 57% 30.45 in 9.0 mi North 10.4 mph - N/A   Mostly Cloudy
1:15 PM 14.0 °F 3.9 °F 1.4 °F 57% 30.44 in 9.0 mi NNW 6.9 mph 13.8 mph N/A   Mostly Cloudy
1:35 PM 14.0 °F -0.2 °F -0.4 °F 53% 30.43 in 10.0 mi North 12.7 mph - N/A   Mostly Cloudy
1:55 PM 12.2 °F 0.7 °F 3.2 °F 67% 30.43 in 3.0 mi NNW 8.1 mph 15.0 mph N/A Snow Light Snow
2:15 PM 12.2 °F 0.7 °F 5.0 °F 73% 30.42 in 3.0 mi NW 8.1 mph - N/A Snow Light Snow
2:35 PM 14.0 °F 2.0 °F 5.0 °F 67% 30.41 in 4.0 mi NNW 9.2 mph - N/A Snow Light Snow
2:55 PM 14.0 °F 0.5 °F 6.8 °F 73% 30.42 in 9.0 mi WNW 11.5 mph - N/A Snow Light Snow
3:15 PM 14.0 °F -0.2 °F 1.4 °F 57% 30.40 in 10.0 mi NNW 12.7 mph - N/A   Mostly Cloudy
3:35 PM 15.8 °F 2.7 °F 1.4 °F 53% 30.40 in 10.0 mi NNW 11.5 mph - N/A   Scattered Clouds
3:55 PM 15.8 °F 3.4 °F 1.4 °F 53% 30.40 in 10.0 mi NW 10.4 mph 17.3 mph N/A   Clear
4:15 PM 15.8 °F 5.1 °F 3.2 °F 58% 30.40 in 10.0 mi NNW 8.1 mph - N/A   Clear
4:35 PM 15.8 °F 2.7 °F 1.4 °F 53% 30.38 in 10.0 mi NNW 11.5 mph 17.3 mph N/A   Partly Cloudy
4:55 PM 15.8 °F 3.4 °F 3.2 °F 58% 30.38 in 10.0 mi NW 10.4 mph 18.4 mph N/A   Partly Cloudy
5:15 PM 15.8 °F 3.4 °F 3.2 °F 58% 30.39 in 10.0 mi NW 10.4 mph - N/A   Partly Cloudy
5:35 PM 15.8 °F 2.7 °F 3.2 °F 58% 30.40 in 10.0 mi NW 11.5 mph - N/A   Mostly Cloudy
5:55 PM 15.8 °F 2.1 °F 3.2 °F 58% 30.40 in 10.0 mi NNW 12.7 mph - N/A   Overcast
6:15 PM 15.8 °F 5.1 °F 3.2 °F 58% 30.40 in 10.0 mi NNW 8.1 mph 13.8 mph N/A   Overcast
6:35 PM 15.8 °F 4.2 °F 3.2 °F 58% 30.41 in 10.0 mi NW 9.2 mph - N/A   Overcast
6:55 PM 15.8 °F 2.7 °F 3.2 °F 58% 30.43 in 10.0 mi NW 11.5 mph - N/A   Mostly Cloudy
7:15 PM 15.8 °F 2.1 °F 3.2 °F 58% 30.44 in 10.0 mi NW 12.7 mph 18.4 mph N/A   Overcast
7:35 PM 15.8 °F 1.4 °F 1.4 °F 53% 30.45 in 10.0 mi NNW 13.8 mph 20.7 mph N/A   Mostly Cloudy
7:55 PM 15.8 °F -0.2 °F 1.4 °F 53% 30.45 in 10.0 mi NW 17.3 mph - N/A   Overcast
8:15 PM 14.0 °F -0.8 °F 1.4 °F 57% 30.46 in 10.0 mi NNW 13.8 mph 20.7 mph N/A   Mostly Cloudy
8:35 PM 14.0 °F -0.2 °F 1.4 °F 57% 30.47 in 10.0 mi NW 12.7 mph 23.0 mph N/A   Partly Cloudy
8:55 PM 14.0 °F -2.5 °F 1.4 °F 57% 30.48 in 10.0 mi NNW 17.3 mph - N/A   Partly Cloudy
9:15 PM 14.0 °F -2.5 °F 1.4 °F 57% 30.49 in 10.0 mi NNW 17.3 mph 25.3 mph N/A   Scattered Clouds
9:35 PM 14.0 °F -0.8 °F 1.4 °F 57% 30.49 in 10.0 mi NNW 13.8 mph 21.9 mph N/A   Mostly Cloudy
9:55 PM 14.0 °F -2.0 °F 3.2 °F 62% 30.50 in 10.0 mi NNW 16.1 mph - N/A   Mostly Cloudy
10:15 PM 14.0 °F -0.8 °F 3.2 °F 62% 30.50 in 10.0 mi NNW 13.8 mph - N/A   Mostly Cloudy
10:35 PM 12.2 °F -3.1 °F 1.4 °F 62% 30.50 in 10.0 mi NNW 13.8 mph - N/A   Scattered Clouds
10:55 PM 12.2 °F -5.3 °F 1.4 °F 62% 30.50 in 10.0 mi NNW 18.4 mph 25.3 mph N/A   Mostly Cloudy
11:15 PM 12.2 °F -5.3 °F -0.4 °F 57% 30.50 in 10.0 mi NNW 18.4 mph - N/A   Scattered Clouds
11:35 PM 10.4 °F -4.1 °F 1.4 °F 67% 30.51 in 10.0 mi NW 11.5 mph - N/A   Scattered Clouds
11:55 PM 10.4 °F -2.4 °F -2.2 °F 57% 30.51 in 10.0 mi NNW 9.2 mph 16.1 mph N/A   Partly Cloudy